Вернуться в каталог

STARLINK-33718

АктивенСвязьVLEO
NORAD 63476·PAYLOAD·🇺🇸 United States

Запущен Apr 6, 2025 с Cape Canaveral Space Force Station

Loading…

Ближайшие Пролёты (ближайшие 24 часа)

TLE

СвежийSource: CelesTrak SupGP

Эпоха: Sep 15, 2026, 03:33 UTC

1 63476C 25070S   26258.14840278 -.00021549  00000+0 -78067-3 0  2588
2 63476  43.0000 269.5357 0001226 263.8763 148.7369 15.27582683    14

Отслеживайте STARLINK-33718 в реальном времени с AllMySat

Download on the App Store